RH
21 20 18 18 16 15 15 14 11 10 12 15 19 23 27 30 32 34 35 35 35 35 35 36 37 38 39 39 38 36 37 39 41 41 41 42 43 45 46 46 46 48 50 53 56 58 58 58 60 60 57 53 53 55 57 59 61 63 69 70 65 67 68 66 67 67 68 70 71 69 68 72 76 73 70 68 65 67 68 67 66 63 59 57 52 47 42 38
20 22 19 18 17 15 14 14 12 9 11 14 17 23 28 32 34 35 36 36 35 34 35 36 36 37 38 37 36 36 38 41 43 43 44 46 48 49 50 50 51 51 52 54 56 57 57 58 59 59 57 57 56 58 59 60 60 64 71 68 64 68 65 63 66 66 67 70 71 70 68 70 72 69 67 67 65 61 60 59 58 54 50 47 42 36 31 28
20 21 21 19 17 16 14 14 12 10 11 14 16 22 28 31 34 36 37 36 35 34 35 35 35 36 37 36 36 38 42 45 46 46 46 47 50 51 52 52 54 53 53 54 55 55 56 58 59 58 57 57 58 59 59 60 58 60 67 68 66 67 63 60 62 64 67 69 71 70 67 68 69 66 64 64 60 53 51 48 47 45 42 38 33 27 22 18
21 20 22 21 17 16 15 14 13 10 10 14 16 21 27 29 32 35 36 36 35 34 33 34 34 35 36 36 37 39 44 48 47 47 47 49 51 51 52 53 55 54 53 55 55 54 55 57 58 57 58 58 60 61 60 58 56 57 63 65 64 65 64 61 60 63 66 68 69 67 64 63 63 60 57 55 52 48 44 41 38 38 35 30 24 20 17 15
22 20 21 22 19 17 16 14 13 11 10 13 17 22 27 28 30 33 35 35 34 34 32 33 33 34 34 34 37 39 44 48 46 46 48 49 50 51 52 52 53 51 51 54 55 53 53 54 54 55 58 59 59 59 58 56 55 57 59 62 63 63 64 62 61 63 66 66 65 63 60 57 54 51 47 44 44 43 37 33 31 29 27 23 20 18 18 19
23 21 20 21 22 19 16 15 13 11 10 12 17 23 27 28 30 33 35 34 33 32 32 32 33 33 33 33 36 40 44 45 43 43 45 46 48 49 49 49 49 48 49 52 53 52 51 52 53 53 56 59 59 58 56 54 55 59 59 60 61 61 64 63 61 62 63 64 63 59 57 51 48 47 42 38 36 32 28 25 22 21 20 19 20 20 19 20
25 23 21 20 22 20 17 16 14 12 10 11 16 22 26 28 30 32 33 33 32 32 31 32 32 33 33 33 36 41 43 42 41 42 43 43 44 46 46 46 47 48 50 51 51 51 51 52 52 54 57 59 58 56 54 51 53 59 59 58 59 60 62 61 59 60 58 58 58 55 52 48 45 44 40 35 29 21 18 18 16 18 18 19 21 20 19 20
27 25 22 20 21 21 18 16 15 14 11 11 15 20 24 28 29 30 31 32 31 31 31 31 31 32 33 35 36 40 42 40 41 43 43 43 43 43 45 45 47 47 49 50 49 50 50 51 51 53 57 57 56 55 52 51 51 56 57 56 57 58 59 57 57 56 53 52 52 49 46 43 41 40 38 34 25 15 14 15 16 18 19 20 21 20 20 21
27 26 24 21 20 21 19 16 15 15 12 11 14 18 23 27 27 29 30 30 30 30 30 30 30 31 32 35 37 39 39 40 42 45 46 47 45 44 45 46 47 47 47 49 49 49 50 51 51 51 54 54 54 53 52 55 54 55 56 57 57 58 57 56 55 52 49 49 47 45 43 40 39 37 35 33 24 17 15 16 17 19 19 20 21 21 21 21
28 27 25 22 20 21 21 17 15 15 14 11 13 17 22 26 27 28 29 29 29 29 29 29 30 31 33 34 37 38 39 40 43 47 49 49 49 49 49 49 49 48 47 49 50 50 49 50 51 50 49 49 51 52 52 54 55 56 57 58 58 57 55 54 53 49 47 47 44 45 45 41 38 36 34 32 28 22 20 19 20 20 20 21 21 22 22 22
29 27 26 24 21 21 21 19 15 15 15 12 12 16 20 24 25 26 28 29 29 29 28 29 30 32 33 35 38 39 39 41 44 48 49 50 51 51 52 51 51 49 46 48 49 50 49 49 51 51 49 47 47 49 50 52 54 56 56 57 57 56 54 53 52 50 48 48 45 44 45 40 36 35 33 31 30 27 25 25 25 24 21 21 22 22 23 23
30 29 27 25 23 21 21 20 16 14 16 14 12 16 19 22 24 25 27 28 28 28 28 28 29 31 32 35 37 39 40 43 45 47 49 50 51 51 51 51 51 50 48 48 48 49 50 50 52 52 50 48 47 48 49 51 54 55 57 59 59 59 57 54 53 51 50 50 46 42 43 42 38 35 31 30 31 31 29 30 32 29 23 23 24 24 24 24
31 30 28 25 24 22 21 20 17 14 15 15 13 15 19 21 22 24 26 27 27 27 28 28 29 30 32 34 36 38 41 43 45 46 48 50 52 52 52 53 52 52 52 50 50 51 50 51 53 53 51 50 49 47 46 49 52 54 58 60 59 59 57 52 50 50 48 49 47 44 44 45 42 38 34 33 32 32 33 33 35 32 27 28 29 27 27 27
32 31 29 26 24 23 22 21 18 15 16 16 14 14 18 20 21 23 24 25 26 27 28 28 28 30 32 34 35 39 42 43 44 46 48 49 52 54 54 54 53 53 52 52 53 53 53 53 54 53 54 54 51 48 49 51 54 57 56 58 59 56 54 49 47 48 47 49 48 46 48 47 44 40 37 36 35 35 36 35 36 36 33 33 32 30 30 30
32 31 30 28 25 24 23 21 19 17 16 16 15 13 16 20 20 21 22 23 24 26 27 27 27 29 31 33 36 40 42 43 45 48 49 50 51 53 54 54 54 53 53 52 52 53 53 55 56 55 55 56 53 51 55 54 56 60 58 59 59 52 50 47 45 47 48 49 47 46 50 49 43 40 39 38 37 38 38 37 38 38 37 35 33 32 31 31
32 32 31 29 26 24 23 23 20 18 17 16 14 13 16 20 20 20 21 21 23 25 26 27 27 28 31 34 36 39 40 41 45 48 50 50 50 52 54 54 54 54 54 53 52 51 53 55 58 58 57 58 59 57 59 58 56 59 58 59 59 52 49 46 42 44 45 48 47 45 49 49 41 39 41 41 40 41 42 41 40 41 39 36 34 33 32 32
32 32 31 29 26 25 23 23 22 20 19 18 14 14 16 19 20 20 20 20 22 24 26 27 27 28 30 32 35 37 37 38 41 45 49 50 50 52 54 55 55 54 56 55 54 53 54 57 59 60 61 63 65 64 63 59 55 55 56 58 58 53 50 48 44 42 42 46 48 46 48 48 43 41 44 44 44 44 44 43 41 41 40 38 36 35 34 32
33 31 31 29 27 26 24 24 24 21 20 18 14 14 16 19 20 20 20 20 22 24 26 27 27 28 29 30 34 35 34 35 38 42 45 47 49 51 54 56 55 54 55 55 55 55 56 58 60 62 63 63 63 64 65 60 53 52 55 57 57 51 47 48 46 42 42 43 45 46 48 47 45 43 44 46 46 46 45 44 43 42 40 38 36 34 32 31
34 32 31 30 27 26 25 26 26 23 20 19 16 14 16 19 20 20 20 21 23 24 25 26 26 28 28 29 32 34 33 33 35 39 43 45 47 51 54 55 55 54 53 55 56 56 58 60 60 61 61 58 56 56 59 59 54 53 56 59 59 52 45 45 44 40 41 42 43 45 45 45 44 43 44 46 47 48 48 47 46 44 42 40 37 34 33 32
34 33 32 31 28 26 26 27 27 24 20 20 19 17 17 21 23 23 22 21 22 23 23 25 26 27 27 28 29 31 33 33 35 38 41 43 46 51 52 53 54 52 52 56 57 56 60 61 59 59 58 54 53 53 56 59 57 54 56 58 58 53 47 44 41 39 41 43 43 42 43 43 43 44 45 46 49 51 52 51 49 46 44 43 42 38 36 36
34 34 33 31 29 26 26 28 28 25 22 20 19 19 21 25 27 27 25 22 20 21 22 24 26 27 26 26 28 30 33 35 36 38 39 40 45 49 50 51 54 55 55 57 57 57 58 59 56 55 54 53 54 56 59 60 59 55 53 52 52 53 49 44 41 40 41 43 43 43 42 41 42 44 45 47 50 51 50 50 50 47 46 46 46 44 41 41
35 35 33 32 30 26 26 28 29 27 24 21 20 21 23 25 28 30 29 25 22 21 21 23 24 25 25 25 28 30 33 35 36 38 38 38 42 46 46 49 53 57 58 55 56 59 58 56 54 52 53 55 57 58 59 60 61 59 54 51 52 53 52 48 46 43 40 41 43 43 41 39 39 41 42 45 47 46 47 49 48 48 49 47 46 47 46 45
37 36 34 33 31 27 25 28 29 28 25 22 22 23 22 23 26 29 29 27 25 21 19 21 22 23 24 24 26 28 31 34 35 37 37 36 38 41 42 46 51 54 55 53 54 56 55 54 53 53 54 56 58 59 60 60 60 60 57 55 55 54 52 51 49 46 42 38 40 44 44 43 41 39 38 42 45 46 48 51 50 51 52 50 48 50 51 51
38 37 36 33 32 29 26 26 28 29 27 23 22 23 22 23 23 26 28 27 25 22 19 20 20 21 24 23 23 27 30 31 32 34 35 35 35 37 40 44 48 49 50 52 53 53 54 54 53 54 55 57 59 59 60 60 59 61 61 59 58 55 53 50 47 48 46 42 45 50 52 53 50 46 42 44 47 50 53 56 57 57 57 57 57 56 56 55
40 39 38 35 33 31 27 26 27 29 29 26 23 23 23 22 22 24 26 25 23 21 19 19 20 20 21 22 22 25 29 29 29 31 33 34 33 35 40 42 44 46 47 51 51 51 53 54 54 54 55 58 60 61 62 60 60 61 60 60 60 57 54 51 49 51 52 52 52 55 59 61 60 56 52 51 52 53 57 62 63 62 61 61 61 59 57 54
42 40 39 37 35 32 29 27 27 26 29 29 25 24 24 24 25 25 26 28 25 19 18 18 19 18 19 22 23 23 26 26 27 29 31 32 31 33 38 41 42 43 47 50 50 49 50 52 54 55 56 57 57 59 60 59 60 58 55 57 59 58 56 55 54 56 57 56 55 58 63 63 62 60 58 58 58 57 59 62 62 60 59 59 58 56 55 53
46 43 41 39 37 34 32 30 28 25 28 29 26 24 24 25 28 26 26 30 26 18 17 17 18 19 19 20 22 23 25 26 26 29 31 32 32 32 36 40 40 41 44 47 47 46 46 50 53 55 57 56 54 55 55 56 58 54 52 56 57 55 55 55 56 59 61 59 58 63 64 61 61 59 58 60 59 58 59 58 57 56 54 55 55 53 53 51
49 46 44 42 39 36 35 33 30 27 26 27 26 25 23 24 28 28 28 28 25 20 18 18 19 20 20 20 21 22 25 27 29 31 31 31 32 32 34 37 38 39 41 43 45 45 45 48 50 52 56 55 53 53 51 52 54 53 53 56 56 55 56 56 58 62 64 58 56 61 60 58 60 58 55 55 53 55 57 54 53 51 51 52 51 50 49 48
52 50 48 46 42 39 36 34 33 30 27 26 27 26 24 24 26 28 30 28 24 24 22 21 21 21 21 21 20 22 24 26 27 30 30 30 32 32 32 33 35 37 38 39 42 41 41 44 47 50 52 52 52 50 48 48 50 51 52 53 54 56 56 57 59 61 61 57 54 56 55 54 57 56 52 49 48 52 52 50 50 47 46 47 46 45 45 46
53 52 51 49 47 42 38 36 35 33 28 25 27 27 25 27 30 31 31 27 26 27 25 24 23 22 22 21 20 22 24 24 24 26 27 28 31 31 30 29 31 35 35 35 38 40 39 41 45 48 48 49 50 48 47 48 48 49 52 52 51 54 56 58 62 59 58 60 56 55 56 53 54 56 51 46 46 48 47 46 47 44 43 43 42 43 44 45
53 54 52 52 50 46 42 39 37 34 31 26 26 27 26 32 38 37 32 27 27 30 26 25 25 23 22 20 20 23 23 23 23 23 25 26 29 30 29 28 31 37 37 34 36 38 38 39 42 45 43 45 49 49 47 48 49 50 54 53 49 52 54 55 58 57 57 61 56 55 56 50 52 53 47 46 48 49 46 43 43 43 43 41 41 42 44 44
48 54 54 53 52 50 46 42 39 37 33 28 26 28 31 36 36 35 32 27 30 33 28 26 26 23 22 19 19 21 20 22 23 23 25 26 28 29 29 30 34 38 38 36 36 37 38 39 39 40 40 41 47 52 50 48 50 49 52 54 52 55 55 54 60 59 57 57 52 55 55 49 51 49 42 45 48 48 46 41 40 42 42 41 40 42 42 43
43 51 54 54 53 52 49 46 43 39 35 30 27 30 35 38 36 34 31 28 33 34 29 27 27 24 22 19 18 19 18 20 22 23 25 26 28 28 27 31 33 35 38 40 37 36 37 39 36 34 35 35 41 51 52 50 49 48 51 53 53 59 59 57 62 60 54 54 53 56 56 51 52 47 42 46 44 43 44 40 39 40 40 39 40 40 41 42
41 46 52 54 53 53 53 51 47 43 38 32 31 33 34 35 38 37 32 31 35 35 31 30 30 26 23 20 20 19 18 20 22 24 25 25 27 28 28 29 31 35 40 39 37 37 38 39 37 33 32 31 35 44 47 47 47 49 54 53 50 56 55 52 56 55 52 54 54 54 53 52 50 43 43 46 41 40 42 39 38 39 39 39 38 39 40 40
41 44 49 53 53 54 55 54 52 49 41 36 36 38 34 32 37 39 36 35 36 35 34 32 31 30 26 23 21 18 18 22 23 24 25 25 27 30 30 29 30 34 37 37 38 38 36 38 35 31 31 30 31 36 39 43 46 47 51 52 50 51 51 50 54 55 55 52 51 52 51 52 50 42 42 45 41 40 39 37 39 38 38 39 39 40 40 40
42 43 48 51 53 55 56 57 58 53 46 42 40 39 36 32 34 38 38 37 35 35 36 34 32 31 28 25 22 19 19 23 24 24 25 25 27 30 30 29 29 30 32 38 41 38 36 39 35 30 32 31 30 33 33 37 44 46 46 49 50 48 48 51 51 55 57 52 50 50 48 50 48 39 41 43 39 40 40 39 38 37 38 38 38 40 40 40
41 44 47 51 52 54 57 60 61 57 51 47 42 40 40 34 34 38 38 36 37 37 38 37 35 32 28 26 24 22 20 22 24 24 25 26 25 26 26 25 27 27 28 33 37 37 38 41 36 31 32 31 30 31 31 33 39 43 44 45 45 43 46 49 50 55 57 52 52 51 45 46 45 39 39 38 35 38 42 41 39 38 38 37 37 39 39 40
37 43 48 53 53 53 57 60 61 60 57 52 48 46 43 36 35 38 36 34 38 40 39 39 37 33 29 28 27 25 22 23 25 25 26 26 24 24 24 23 24 26 27 27 30 34 36 38 37 33 30 31 30 30 34 34 34 39 41 39 39 41 43 44 47 52 52 49 51 51 47 45 42 42 40 34 33 36 38 41 41 39 39 37 37 38 38 39
29 42 50 55 55 54 56 59 61 62 61 59 56 49 41 38 38 39 35 33 35 39 41 40 39 35 33 31 30 27 24 25 26 26 26 25 24 25 24 23 24 25 26 26 27 33 35 36 37 36 32 32 32 32 37 36 32 34 36 34 37 42 43 41 41 44 44 46 49 49 48 45 40 41 39 33 34 35 34 38 41 39 38 37 37 38 38 39
21 39 51 55 56 56 58 60 62 64 64 64 62 52 44 41 38 37 35 32 32 36 40 42 40 38 36 34 32 29 28 28 27 26 26 25 25 25 25 25 25 26 27 26 27 34 35 32 36 39 36 33 33 32 33 34 32 34 35 34 37 39 38 37 37 37 39 46 51 48 47 44 38 36 35 32 33 35 33 36 38 38 37 37 37 38 39 40
18 33 45 53 56 57 60 62 64 67 67 68 66 58 50 44 38 38 37 33 31 32 36 41 41 39 37 36 34 31 30 30 29 27 27 26 24 25 25 25 27 27 27 27 29 33 32 32 37 40 34 32 35 33 31 31 31 34 36 36 37 37 36 38 39 37 36 41 47 45 42 42 38 35 34 32 33 34 33 34 36 35 34 35 37 37 37 39
22 28 33 45 56 57 60 66 68 69 70 70 67 60 53 47 44 43 40 35 33 32 33 38 41 40 39 38 36 33 31 30 30 29 28 26 24 24 25 25 26 28 28 29 31 33 35 35 35 35 34 35 37 35 33 32 31 32 35 38 38 38 39 41 42 39 36 36 41 42 39 40 39 37 37 36 34 34 32 32 34 32 32 34 36 36 37 37
24 23 18 32 51 55 60 69 70 70 71 72 69 63 56 52 49 48 46 42 37 34 34 37 40 41 40 40 37 34 32 31 31 32 30 27 24 24 25 26 26 28 29 30 31 33 36 34 30 33 39 40 38 38 36 33 31 31 32 35 37 38 39 42 45 45 41 38 38 38 39 41 41 42 41 39 37 34 31 31 31 30 31 33 35 37 37 37
23 19 12 24 45 55 63 72 73 74 75 73 72 68 62 57 53 52 52 48 42 38 37 39 41 41 42 42 39 36 34 32 32 33 32 29 27 26 25 27 27 28 28 28 30 31 32 32 33 34 37 37 36 38 39 34 31 31 32 32 34 36 38 39 42 44 41 40 39 39 41 42 41 42 43 41 40 37 34 32 31 30 30 32 34 36 37 36
22 19 14 21 39 55 67 75 76 78 79 75 75 74 69 62 57 55 55 51 45 41 40 43 45 43 45 45 41 39 38 34 32 34 33 31 30 29 26 26 27 28 29 28 30 32 33 37 41 38 36 37 36 39 41 39 34 33 33 33 32 34 36 36 38 38 37 39 41 40 42 42 40 40 41 41 42 39 36 35 33 32 32 32 34 35 36 36
25 25 22 22 32 47 63 75 78 79 80 79 77 76 73 70 63 57 56 55 50 43 40 43 47 47 48 48 45 44 42 37 34 34 34 32 31 31 30 28 28 30 32 31 31 36 39 41 44 41 35 35 37 40 42 40 37 35 34 33 33 35 37 37 38 37 37 39 41 42 41 39 39 39 39 41 42 40 39 37 34 33 33 34 35 36 36 37
28 28 28 28 30 39 53 68 79 82 81 80 80 78 77 76 70 63 60 59 56 49 43 44 49 51 52 51 49 47 46 43 38 35 35 35 32 33 33 32 33 34 35 32 32 38 40 36 39 40 35 34 39 41 38 36 36 37 36 35 36 38 38 37 37 38 38 36 39 45 43 37 38 40 39 41 42 41 41 38 34 34 34 35 35 36 36 36
28 28 28 30 34 40 47 58 72 80 82 81 82 81 80 78 74 70 66 62 59 54 48 49 52 54 56 55 52 49 48 46 41 38 39 38 35 34 33 32 35 35 34 34 35 41 41 35 36 39 37 37 40 40 38 36 35 36 37 38 39 40 39 37 40 42 38 32 35 43 43 38 39 41 41 42 43 43 43 40 37 37 38 38 37 36 36 37
27 29 29 29 32 38 44 53 65 74 79 82 82 82 82 81 79 76 72 69 66 60 53 53 55 56 58 58 53 50 51 49 45 42 42 40 38 35 33 33 33 32 34 36 37 39 38 36 39 41 39 38 41 42 40 36 34 34 37 39 41 43 41 38 42 44 39 34 36 40 41 40 39 41 42 44 44 44 44 44 42 42 44 44 41 38 39 40
27 28 29 29 29 30 36 48 59 67 75 82 83 82 82 84 83 80 76 73 72 67 60 57 58 57 59 60 56 53 53 52 50 48 45 43 42 39 36 36 34 32 34 37 37 37 36 37 44 46 41 39 42 44 42 39 36 33 34 38 42 43 41 39 42 42 38 37 39 39 39 39 40 43 44 43 44 46 46 46 46 47 48 48 45 42 42 43
27 28 28 29 29 27 29 37 49 61 72 81 86 85 84 86 87 84 80 76 74 72 66 62 61 61 62 61 58 55 55 53 53 52 48 45 46 43 39 37 36 35 36 36 36 39 40 43 45 45 42 41 43 44 44 40 37 34 32 35 39 41 41 40 41 40 37 38 40 38 37 37 40 44 46 45 46 47 48 49 49 50 51 50 49 47 47 47
24 26 28 29 29 28 29 31 39 52 65 76 85 88 85 85 86 87 86 81 76 75 72 66 64 65 65 62 59 57 57 55 54 53 50 47 46 45 42 39 38 38 39 41 41 43 44 44 44 44 42 42 45 49 47 41 37 36 37 36 36 39 42 42 43 44 41 39 39 36 35 38 42 44 45 48 50 50 50 51 51 51 53 52 52 52 51 50